This demonstration page uses our WeatherBlox Daily Observations layout. Learn more.

Left ArrowRight Arrow

34.16533, -84.80231

Hourly Observations for September 9, 2022

Temp ( °F °C ) Dew Point ( °F °C ) Humidity (%) Winds ( mph kmh ) Pressure ( in mb ) Visibility ( mi km ) Precip ( " mm )
12:35 am 00:35 Clear 72 22 68 20 88 88 Calm 29.85 1011 10 16 0.00 0.00
12:55 am 00:55 Clear 72 22 68 20 88 88 Calm 29.85 1011 10 16 0.00 0.00
1:15 am 01:15 Clear 70 21 68 20 94 94 Calm 29.86 1011 10 16 0.00 0.00
1:35 am 01:35 Clear 72 22 68 20 88 88 Calm 29.86 1011 10 16 0.00 0.00
2:00 am 02:00 Clear 70 21 68 20 94 94 Calm 29.86 1011 10 16 0.00 0.00
2:15 am 02:15 Clear 70 21 68 20 94 94 Calm 29.86 1011 10 16 0.00 0.00
2:35 am 02:35 Clear 70 21 68 20 94 94 Calm 29.86 1011 10 16 0.00 0.00
2:55 am 02:55 Clear 70 21 68 20 94 94 Calm 29.86 1011 10 16 0.00 0.00
3:15 am 03:15 Clear 70 21 68 20 94 94 Calm 29.85 1011 10 16 0.00 0.00
3:35 am 03:35 Clear 70 21 68 20 94 94 Calm 29.85 1011 10 16 0.00 0.00
3:55 am 03:55 Clear 70 21 68 20 94 94 Calm 29.86 1011 10 16 0.00 0.00
4:15 am 04:15 Clear 70 21 68 20 94 94 Calm 29.86 1011 10 16 0.00 0.00
4:35 am 04:35 Clear 70 21 68 20 94 94 Calm 29.85 1011 10 16 0.00 0.00
4:55 am 04:55 Clear 70 21 68 20 94 94 NE 3 6 29.85 1011 10 16 0.00 0.00
5:15 am 05:15 Clear 70 21 68 20 94 94 E 5 7 29.85 1011 10 16 0.00 0.00
5:35 am 05:35 Clear 70 21 68 20 94 94 E 5 7 29.86 1011 10 16 0.00 0.00
5:55 am 05:55 Mostly Clear 70 21 68 20 94 94 E 6 9 29.86 1011 10 16 0.00 0.00
6:15 am 06:15 Partly Cloudy 70 21 68 20 94 94 E 6 9 29.86 1011 10 16 0.00 0.00
6:35 am 06:35 Cloudy 70 21 68 20 94 94 E 6 9 29.87 1012 10 16 0.00 0.00
6:55 am 06:55 Cloudy 70 21 68 20 94 94 Calm 29.87 1012 10 16 0.00 0.00
7:15 am 07:15 Cloudy 70 21 68 20 94 94 E 6 9 29.88 1012 10 16 0.00 0.00
7:35 am 07:35 Cloudy 72 22 68 20 88 88 ENE 10 17 29.89 1012 10 16 0.00 0.00
7:55 am 07:55 Cloudy 72 22 68 20 88 88 ENE 8 13 29.89 1012 10 16 0.00 0.00
8:15 am 08:15 Cloudy 72 22 68 20 88 88 NE 8 13 29.89 1012 10 16 0.00 0.00
8:35 am 08:35 Cloudy 72 22 68 20 88 88 ENE 9 15 29.89 1012 10 16 0.00 0.00
8:55 am 08:55 Cloudy 73 23 68 20 83 83 ESE 7 11 29.90 1012 10 16 0.00 0.00
9:15 am 09:15 Cloudy 73 23 68 20 83 83 E 9 15 29.90 1012 10 16 0.00 0.00
9:35 am 09:35 Cloudy 73 23 66 19 78 78 E 13 20 29.90 1012 10 16 0.00 0.00
9:55 am 09:55 Mostly Cloudy 75 24 66 19 74 74 ESE 15 24 29.89 1012 10 16 0.00 0.00
10:15 am 10:15 Cloudy 75 24 66 19 74 74 ESE 13 20 29.90 1013 10 16 0.00 0.00
10:35 am 10:35 Cloudy 75 24 66 19 74 74 ESE 13 20 29.91 1013 10 16 0.00 0.00
10:55 am 10:55 Mostly Cloudy 77 25 66 19 69 69 ESE 12 19 29.91 1013 10 16 0.00 0.00
11:15 am 11:15 Mostly Cloudy 75 24 66 19 74 74 VRB 7 11 29.92 1013 10 16 0.00 0.00
11:35 am 11:35 Cloudy 75 24 66 19 74 74 ENE 8 13 29.92 1013 10 16 0.00 0.00
11:55 am 11:55 Cloudy 77 25 64 18 65 65 E 10 17 29.91 1013 10 16 0.00 0.00
12:15 pm 12:15 Cloudy 79 26 64 18 61 61 E 13 20 29.92 1013 10 16 0.00 0.00
12:35 pm 12:35 Mostly Cloudy 77 25 64 18 65 65 ENE 12 19 29.92 1013 10 16 0.00 0.00
12:55 pm 12:55 Mostly Cloudy 79 26 64 18 61 61 ENE 8 13 29.92 1013 10 16 0.00 0.00
1:15 pm 13:15 Mostly Cloudy 81 27 64 18 58 58 E 9 15 29.91 1013 10 16 0.00 0.00
1:35 pm 13:35 Mostly Cloudy 79 26 64 18 61 61 E 9 15 29.91 1013 10 16 0.00 0.00
1:55 pm 13:55 Mostly Cloudy 81 27 64 18 58 58 ENE 9 15 29.91 1013 10 16 0.00 0.00
2:15 pm 14:15 Cloudy 77 25 64 18 65 65 ENE 7 11 29.91 1013 10 16 0.00 0.00
2:35 pm 14:35 Mostly Cloudy 79 26 64 18 61 61 ENE 9 15 29.91 1013 10 16 0.00 0.00
2:55 pm 14:55 Partly Cloudy 81 27 64 18 58 58 ENE 12 19 29.89 1012 10 16 0.00 0.00
3:15 pm 15:15 Mostly Cloudy 81 27 64 18 58 58 E 10 17 29.89 1012 10 16 0.00 0.00
3:35 pm 15:35 Cloudy 79 26 64 18 61 61 E 10 17 29.89 1012 10 16 0.00 0.00
3:55 pm 15:55 Mostly Cloudy 79 26 64 18 61 61 ESE 8 13 29.89 1012 10 16 0.00 0.00
4:15 pm 16:15 Mostly Cloudy 79 26 64 18 61 61 ENE 10 17 29.89 1012 10 16 0.00 0.00
4:35 pm 16:35 Mostly Cloudy 79 26 64 18 61 61 NE 9 15 29.89 1012 10 16 0.00 0.00
4:55 pm 16:55 Cloudy 79 26 64 18 61 61 ENE 10 17 29.89 1012 10 16 0.00 0.00
5:15 pm 17:15 Cloudy 79 26 64 18 61 61 NE 12 19 29.89 1012 10 16 0.00 0.00
5:35 pm 17:35 Partly Cloudy 77 25 64 18 65 65 VRB 8 13 29.89 1012 10 16 0.00 0.00
5:55 pm 17:55 Partly Cloudy 77 25 64 18 65 65 E 9 15 29.89 1012 10 16 0.00 0.00
6:15 pm 18:15 Mostly Cloudy 77 25 63 17 61 61 E 12 19 29.88 1012 10 16 0.00 0.00
6:35 pm 18:35 Cloudy 77 25 64 18 65 65 ESE 8 13 29.90 1012 10 16 0.00 0.00
6:55 pm 18:55 Cloudy 75 24 64 18 69 69 E 6 9 29.90 1013 10 16 0.00 0.00
7:15 pm 19:15 Cloudy 75 24 64 18 69 69 E 6 9 29.90 1013 10 16 0.00 0.00
7:35 pm 19:35 Cloudy 75 24 64 18 69 69 E 6 9 29.90 1013 10 16 0.00 0.00
7:55 pm 19:55 Cloudy 75 24 64 18 69 69 VRB 6 9 29.90 1013 10 16 0.00 0.00
8:15 pm 20:15 Cloudy 75 24 64 18 69 69 E 5 7 29.90 1013 10 16 0.00 0.00
8:35 pm 20:35 Cloudy 75 24 64 18 69 69 E 6 9 29.91 1013 10 16 0.00 0.00
8:55 pm 20:55 Mostly Cloudy 75 24 64 18 69 69 E 6 9 29.91 1013 10 16 0.00 0.00
9:15 pm 21:15 Mostly Cloudy 75 24 64 18 69 69 E 5 7 29.93 1014 10 16 0.00 0.00
9:35 pm 21:35 Mostly Cloudy 75 24 66 19 74 74 Calm 29.94 1014 10 16 0.00 0.00
9:55 pm 21:55 Cloudy 73 23 66 19 78 78 E 3 6 29.95 1014 10 16 0.00 0.00
10:15 pm 22:15 Cloudy 73 23 66 19 78 78 Calm 29.95 1014 10 16 0.00 0.00
10:35 pm 22:35 Cloudy 73 23 64 18 73 73 ESE 3 6 29.95 1014 10 16 0.00 0.00
10:55 pm 22:55 Cloudy 73 23 64 18 73 73 ESE 5 7 29.95 1014 10 16 0.00 0.00
11:15 pm 23:15 Mostly Cloudy 73 23 64 18 73 73 E 6 9 29.95 1014 10 16 0.00 0.00
11:35 pm 23:35 Mostly Cloudy 73 23 66 19 78 78 ENE 5 7 29.95 1014 10 16 0.00 0.00
11:55 pm 23:55 Cloudy 73 23 64 18 73 73 ENE 7 11 29.95 1014 10 16 0.00 0.00

Powered by AerisWeather